Weather in Yaltushkiv

Ukraine / Vinnytsia Region     48°59′32″N   27°30′01″E
temp.,
°C
wind,
m/s
gust,
m/s
humid.,
%
clouds,
%
prec.,
mm/h
press.,
hPa
HPBL,
m
24 july, sat
sat2400:00+15n33800 0.0 101740
03:00+15n227759 0.0 101723
06:00+16n2268100 0.0 101735
09:00+18ne1270100 0.0 101793
12:00+21ne1260100 0.0 1017393
15:00+23ese114993 0.0 10171260
18:00+23w115467 0.0 1017591
21:00+18ne116511 0.0 101811
25 july, sun
sun2500:00+16se227411 0.0 101913
03:00+15ese11730 0.0 101911
06:00+15se11760 0.0 101911
09:00+21se34600 0.0 1019293
12:00+25s344522 0.0 10191992
15:00+26sse4446100 0.0 10182180
18:00+23se4766100 0.0 1019293
21:00+19ese35735 0.0 101970
26 july, mon
mon2600:00+18ese46673 0.0 102082
03:00+16se48705 0.0 1020120
06:00+16ese411695 0.0 1020193
09:00+22se610625 0.0 1019436
12:00+26sse68495 0.0 10201209
15:00+27sse67459 0.0 10192068
18:00+27sse575185 0.0 10191163
21:00+21se47686 0.0 101998
27 july, tue
tue2700:00+19ese4116789 0.0 1019195
03:00+18se412665 0.0 1019226
06:00+17se410724 0.0 1019165
09:00+23sse612625 0.0 1018459
12:00+27sse81148100 0.0 10181009
15:00+29sse8104584 0.0 10171242
18:00+28sse610541 0.0 10161003
21:00+21sse412816 0.6 1017208
28 july, wed
wed2800:00+19sse41185100 0.6 1016175
03:00+19sse41383100 0.6 1015235
06:00+19se4108550 0.7 1014164
09:00+22s69717 1.1 1014340
12:00+28s455515 0.0 1014567
15:00+32sw6124266 0.0 10133251
18:00+28wsw71254100 0.1 1013543
21:00+18s4118948 0.4 1014228